Starlink 32786

operational
NORAD ID: 62528 Int'l Des: 2025-004 Owner: SPXS Country: US Constellation: starlink
LEOCIRCULAR

About Starlink 32786

Description loading...

Live Position

Loading 3D Globe...

Upcoming Passes

Altitude History

Altitude vs Time

uPlot chart will show altitude changes over time

Two-Line Element Set

1 62528U 25004T 25307.75682575 .00027883 00000-0 10186-2 0 9992
2 62528 42.9949 210.6521 0000458 202.5075 157.5756 15.27591014 46255
Epoch: Nov 3, 2025 • Age: 12 hours

Current Status

Altitude 492.3 km
Velocity 7.62 km/s
Sub-Earth Point -34.17°S, 62.12°W
Launch Date Jan 8, 2025
Age 0.8 years
Type internet

Technical Details

Classification Payload
Mass 730.00 kg
Dry Mass 700.00 kg
Total Mass 730.00 kg
Length 0.30 m
Diameter 4.10 m
Span 29.00 m
Shape Box + pan
Manufacturer SPXS
Bus Type Starlink V2M
Phase Status In Orbit
Owner/State SPXS/US

Large Constellations

Loading constellations...